Miscellaneous Local Product
Issued by NWS North Platte, NE

Home | Current Version | Previous Version | Text Only | Print | Product List | Glossary On
Versions: 1 2 3 4 5 6 7 8 9 10 11 12 13 14 15 16 17 18 19 20 21 22 23 24 25 26 27 28 29 30 31 32 33 34 35 36 37 38 39 40 41 42 43 44 45 46 47 48 49 50
000
AXUS43 KLBF 291010
MISLBF


WESTERN AND NORTH CENTRAL NEBRASKA HOURLY WEATHER ROUNDUP
NATIONAL WEATHER SERVICE NORTH PLATTE NE
500 AM CDT FRI AUG 29 2014

***STATIONS NOT REPORTING VARIABLES SUCH AS SKY/WEATHER OR
PRESSURE ARE PROVIDED BY THE NEBRASKA DEPARTMENT OF
ROADS...RAWS...AND APRS NETWORKS...AND ARE NOT UNDER
NATIONAL WEATHER SERVICE QUALITY CONTROL***

...OBSERVATIONS IN AND NEAR THE EASTERN PANHANDLE OF NEBRASKA...

CITY           SKY/WX    TMP DP  RH WIND       PRES   REMARKS
PINE RIDGE     CLEAR     49  48  97 CALM      29.91F
CHADRON        CLEAR     54  51  90 W8        29.92S
ALLIANCE       CLEAR     50  48  93 W9        29.95S
SIDNEY         CLEAR     53  49  86 W5        30.00F
WHITECLAY        N/A     49  47  93 SE3         N/A
RUSHVILLE        N/A     49  47  93 S8          N/A
GORDON           N/A     57  50  77 W8          N/A
CRESCENT LAKE    N/A     54  47  78 NW5         N/A
LISCO            N/A     54  51  89 W3          N/A
BIG SPRINGS      N/A     55  53  94 CALM        N/A
$$

...OBSERVATIONS IN NORTH CENTRAL NEBRASKA...

CITY           SKY/WX    TMP DP  RH WIND       PRES   REMARKS
VALENTINE      CLEAR     59  59 100 SW7       29.87S
THEDFORD       CLEAR     57  55  94 W7        29.90S
AINSWORTH      CLEAR     60  59  97 W5        29.87S
O`NEILL        PTCLDY    64  63  99 W7        29.82F
ORD            MOCLDY    62  60  93 NW8       29.82F
BROKEN BOW     PTCLDY    62  57  83 CALM      29.86F
SPRINGVIEW       N/A     62  60  95 CALM        N/A
ROSE             N/A     63  63 100 CALM        N/A
NEWPORT          N/A     62  62  99 W7          N/A
SARGENT          N/A     60  58  95 CALM        N/A
COMSTOCK         N/A     67  65  94 CALM        N/A
CHAMBERS         N/A     62  61  97 W3          N/A
EWING            N/A     63  62  97 CALM        N/A
$$

...OBSERVATIONS IN SOUTHWEST NEBRASKA AND FAR NORTHEAST COLORADO...

CITY           SKY/WX    TMP DP  RH WIND       PRES   REMARKS
WRAY             N/A     54  53  95 CALM      29.97F
HOLYOKE        FAIR      61  54  77 W10       29.96F
IMPERIAL       CLEAR     57  52  83 NW12      29.94F
OGALLALA       CLEAR     51  51  97 W7        29.94S
NORTH PLATTE   CLEAR     55  53  93 CALM      29.90F
MCCOOK         CLEAR     58  55  90 NW7       29.89F
LEXINGTON      PTCLDY    62  60  94 NW7       29.87S
PAXTON           N/A     56  54  92 CALM        N/A
SUTHERLAND       N/A     53  50  92 W5          N/A
BRADY            N/A     58  55  89 CALM        N/A
GOTHENBURG       N/A     60  55  85 W5          N/A
CALLAWAY         N/A     61  59  94 NW3         N/A
$$

...SOME WEATHER OBSERVATIONS FROM AROUND THE REGION...

CITY           SKY/WX    TMP DP  RH WIND       PRES   REMARKS
DENVER         CLEAR     54  46  74 SW12      30.08F
LARAMIE        MOCLDY    46  43  89 E6        30.20S
CHEYENNE       CLEAR     51  42  71 NW8       30.11F
SCOTTSBLUFF    CLEAR     50  49  96 NW5       29.98S
RAPID CITY     CLEAR     60  51  72 W10       29.89S
PIERRE         CLOUDY    65  65 100 N5        29.80S
WINNER         CLOUDY    67  64  90 W5        29.83S
SIOUX FALLS    CLOUDY    71  68  90 SW3       29.77S
OMAHA          CLOUDY    72  69  90 S8        29.80S
GRAND ISLAND   CLOUDY    67  65  93 CALM      29.83R
KANSAS CITY    PTCLDY    69  64  84 S9        29.85S
WICHITA        CLOUDY    68  65  90 W7        29.85R
HAYS           CLOUDY    63  57  82 W5        29.87F
LIBERAL        CLEAR     63  55  77 SW7       29.98F
GOODLAND       CLEAR     56  53  90 W9        29.97F
$$



USA.gov is the U.S. government's official web portal to all federal, state and local government web resources and services.